GW7334 Weather Reports


time (UTC)temp
C
wind
direction
speed
KPH
gust
KPH
rain 1hr
cm
rain 24hr
cm
rain mn
cm
humidity
%
barometer
mb
20260507132649 32 20 17.7 24.1 0.00 0.00 0.00 37 1007.4
20260507132145 32 319 4.8 16.1 0.00 0.00 0.00 37 1007.7
20260507131643 32 320 3.2 19.3 0.00 0.00 0.00 37 1007.5
20260507131139 32 342 3.2 22.5 0.00 0.00 0.00 37 1007.6
20260507130636 32 6 14.5 24.1 0.00 0.00 0.00 36 1007.7
20260507130134 33 39 14.5 24.1 0.00 0.00 0.00 37 1007.4
20260507125633 33 49 11.3 19.3 0.00 0.00 0.00 36 1007.4
20260507125130 33 37 8.0 16.1 0.00 0.00 0.00 36 1007.9
20260507124626 33 2 6.4 19.3 0.00 0.00 0.00 36 1008.1
20260507124124 32 351 6.4 16.1 0.00 0.00 0.00 36 1008.2
20260507123622 32 347 9.7 19.3 0.00 0.00 0.00 36 1008.4
20260507123119 32 6 19.3 20.9 0.00 0.00 0.00 36 1008.4
20260507122613 32 323 8.0 12.9 0.00 0.00 0.00 36 1008.7
20260507122109 32 20 14.5 19.3 0.00 0.00 0.00 35 1008.7
20260507121606 32 352 9.7 27.4 0.00 0.00 0.00 35 1008.7
20260507121102 32 358 11.3 17.7 0.00 0.00 0.00 34 1009.0
20260507120558 32 6 8.0 16.1 0.00 0.00 0.00 33 1009.3
20260507120055 32 13 8.0 16.1 0.00 0.00 0.00 31 1009.5
20260507115551 32 20 6.4 25.7 0.00 0.00 0.00 29 1010.0
20260507115047 32 358 16.1 24.1 0.00 0.00 0.00 29 1010.3
20260507114543 32 329 17.7 32.2 0.00 0.00 0.00 30 1010.3
20260507114041 32 0 22.5 27.4 0.00 0.00 0.00 30 1010.3
20260507113537 32 324 9.7 25.7 0.00 0.00 0.00 29 1010.6
20260507113035 32 344 14.5 37.0 0.00 0.00 0.00 28 1010.5
20260507112532 32 345 20.9 38.6 0.00 0.00 0.00 27 1010.3
20260507112029 32 0 25.7 32.2 0.00 0.00 0.00 26 1009.8
20260507111526 32 8 24.1 41.8 0.00 0.00 0.00 26 1009.9
20260507111023 32 0 14.5 41.8 0.00 0.00 0.00 27 1009.8
20260507110519 32 324 20.9 48.3 0.00 0.00 0.00 27 1010.1
20260507110015 33 342 17.7 38.6 0.00 0.00 0.00 26 1010.1
20260507105513 33 5 25.7 40.2 0.00 0.00 0.00 25 1010.1
20260507105008 33 2 20.9 37.0 0.00 0.00 0.00 25 1010.2
20260507104507 33 0 17.7 38.6 0.00 0.00 0.00 25 1010.0
20260507104002 33 337 22.5 33.8 0.00 0.00 0.00 25 1009.9
20260507103459 33 0 17.7 27.4 0.00 0.00 0.00 25 1010.2
20260507102955 33 359 16.1 29.0 0.00 0.00 0.00 25 1010.4
20260507102452 33 14 11.3 27.4 0.00 0.00 0.00 26 1010.8
20260507101948 33 27 14.5 24.1 0.00 0.00 0.00 26 1011.2
20260507101443 33 349 12.9 33.8 0.00 0.00 0.00 26 1011.2
20260507100940 32 328 29.0 40.2 0.00 0.00 0.00 26 1011.9
20260507100438 32 351 22.5 33.8 0.00 0.00 0.00 27 1011.8
20260507095936 32 350 11.3 29.0 0.00 0.00 0.00 27 1011.7
20260507095433 33 294 8.0 17.7 0.00 0.00 0.00 27 1012.0
20260507094930 32 0 12.9 25.7 0.00 0.00 0.00 26 1011.9
20260507094426 32 326 14.5 24.1 0.00 0.00 0.00 26 1011.6
20260507093923 32 1 11.3 27.4 0.00 0.00 0.00 27 1011.7
20260507093421 32 344 14.5 30.6 0.00 0.00 0.00 26 1011.8
20260507092919 33 20 19.3 30.6 0.00 0.00 0.00 26 1011.9
20260507092415 33 357 14.5 32.2 0.00 0.00 0.00 26 1011.6
20260507091912 33 358 12.9 29.0 0.00 0.00 0.00 27 1011.7
20260507091408 33 39 9.7 27.4 0.00 0.00 0.00 26 1011.5
20260507090904 33 359 9.7 22.5 0.00 0.00 0.00 27 1011.8
20260507090400 33 341 22.5 33.8 0.00 0.00 0.00 27 1011.7
20260507085857 33 302 9.7 17.7 0.00 0.00 0.00 27 1012.0
20260507085354 33 337 4.8 24.1 0.00 0.00 0.00 28 1012.3
20260507084851 32 348 6.4 17.7 0.00 0.00 0.00 30 1011.9
20260507084348 32 9 12.9 29.0 0.00 0.00 0.00 29 1011.0
20260507083845 32 6 12.9 32.2 0.00 0.00 0.00 28 1011.0
20260507083341 32 13 16.1 30.6 0.00 0.00 0.00 28 1011.1
20260507082838 32 40 24.1 25.7 0.00 0.00 0.00 29 1010.9
20260507082333 32 42 16.1 20.9 0.00 0.00 0.00 29 1010.8
20260507081831 32 9 11.3 30.6 0.00 0.00 0.00 30 1010.7
20260507081327 31 26 12.9 27.4 0.00 0.00 0.00 31 1010.5
20260507080824 32 25 11.3 24.1 0.00 0.00 0.00 32 1010.3
20260507080320 32 29 12.9 25.7 0.00 0.00 0.00 32 1010.1
20260507075815 31 31 12.9 25.7 0.00 0.00 0.00 33 1010.4
20260507075312 31 61 9.7 29.0 0.00 0.00 0.00 34 1010.3
20260507074809 31 0 6.4 17.7 0.00 0.00 0.00 33 1010.6
20260507074306 31 73 11.3 17.7 0.00 0.00 0.00 34 1010.6
20260507073803 31 16 16.1 22.5 0.00 0.00 0.00 34 1010.4
20260507073259 30 357 8.0 27.4 0.00 0.00 0.00 35 1010.7
20260507072757 30 8 27.4 27.4 0.00 0.00 0.00 35 1010.9
20260507072254 30 32 11.3 25.7 0.00 0.00 0.00 35 1011.1
20260507071752 30 12 8.0 19.3 0.00 0.00 0.00 35 1010.8
20260507071248 30 12 8.0 22.5 0.00 0.00 0.00 36 1010.9
20260507070745 29 2 20.9 29.0 0.00 0.00 0.00 35 1011.0
20260507070242 29 46 20.9 29.0 0.00 0.00 0.00 35 1011.1
20260507065738 29 37 8.0 33.8 0.00 0.00 0.00 37 1010.8
20260507065235 29 80 6.4 22.5 0.00 0.00 0.00 36 1011.1
20260507064732 28 3 19.3 20.9 0.00 0.00 0.00 37 1010.9
20260507064232 28 346 16.1 17.7 0.00 0.00 0.00 37 1011.2
20260507063728 28 26 12.9 25.7 0.00 0.00 0.00 39 1011.1
20260507063225 28 15 9.7 25.7 0.00 0.00 0.00 39 1011.2
20260507062722 28 332 17.7 24.1 0.00 0.00 0.00 38 1011.1
20260507062220 28 19 19.3 24.1 0.00 0.00 0.00 38 1011.1
20260507061717 27 12 14.5 27.4 0.00 0.00 0.00 38 1011.0
20260507061215 28 5 11.3 20.9 0.00 0.00 0.00 38 1011.1
20260507060713 28 10 4.8 22.5 0.00 0.00 0.00 39 1011.3
20260507060209 27 341 14.5 27.4 0.00 0.00 0.00 39 1011.0
20260507055705 27 29 14.5 22.5 0.00 0.00 0.00 39 1011.1
20260507055201 27 10 27.4 30.6 0.00 0.00 0.00 39 1011.1
20260507054657 27 359 16.1 24.1 0.00 0.00 0.00 40 1011.1
20260507054154 27 31 11.3 24.1 0.00 0.00 0.00 40 1010.7
20260507053652 26 21 22.5 29.0 0.00 0.00 0.00 40 1010.5
20260507053150 27 41 12.9 22.5 0.00 0.00 0.00 40 1010.5
20260507052648 26 37 8.0 19.3 0.00 0.00 0.00 41 1010.6
20260507052144 26 33 8.0 14.5 0.00 0.00 0.00 41 1010.7
20260507051642 26 77 8.0 20.9 0.00 0.00 0.00 41 1010.5
20260507051138 25 49 20.9 27.4 0.00 0.00 0.00 41 1010.3
20260507050635 25 46 27.4 27.4 0.00 0.00 0.00 41 1010.3
20260507050132 25 16 11.3 27.4 0.00 0.00 0.00 41 1010.6
20260507045629 25 30 6.4 17.7 0.00 0.00 0.00 42 1010.5
20260507045125 25 58 11.3 25.7 0.00 0.00 0.00 41 1010.3
20260507044622 25 19 12.9 27.4 0.00 0.00 0.00 42 1010.3
20260507044119 25 44 14.5 22.5 0.00 0.00 0.00 41 1010.4
20260507043615 26 33 24.1 33.8 0.00 0.00 0.00 41 1010.6
20260507043113 25 52 12.9 29.0 0.00 0.00 0.00 42 1010.5
20260507042608 25 0 9.7 24.1 0.00 0.00 0.00 43 1010.5
20260507042104 25 26 9.7 20.9 0.00 0.00 0.00 43 1010.3
20260507041601 25 48 16.1 27.4 0.00 0.00 0.00 43 1010.3
20260507041058 25 19 17.7 24.1 0.00 0.00 0.00 44 1010.2
20260507040554 25 27 8.0 32.2 0.00 0.00 0.00 44 1010.0
20260507040051 25 0 11.3 20.9 0.00 0.00 0.00 44 1010.1
20260507035547 25 59 12.9 22.5 0.00 0.00 0.00 44 1010.2
20260507035043 25 12 11.3 24.1 0.00 0.00 0.00 44 1010.2
20260507034540 25 57 6.4 20.9 0.00 0.00 0.00 43 1009.9
20260507034038 25 30 9.7 29.0 0.00 0.00 0.00 43 1010.1
20260507033535 25 42 14.5 27.4 0.00 0.00 0.00 43 1009.9
20260507033033 25 38 12.9 25.7 0.00 0.00 0.00 43 1009.9
20260507032530 25 15 19.3 33.8 0.00 0.00 0.00 43 1009.8
20260507032026 25 344 14.5 25.7 0.00 0.00 0.00 43 1009.8
20260507031522 25 11 9.7 30.6 0.00 0.00 0.00 44 1009.9
20260507031020 25 30 11.3 27.4 0.00 0.00 0.00 44 1009.8
20260507030516 25 29 11.3 25.7 0.00 0.00 0.00 44 1009.8
20260507030014 25 49 22.5 27.4 0.00 0.00 0.00 43 1009.9
20260507025511 24 55 6.4 29.0 0.00 0.00 0.00 44 1009.9
20260507025008 25 48 12.9 29.0 0.00 0.00 0.00 44 1010.1
20260507024506 25 20 12.9 29.0 0.00 0.00 0.00 43 1010.0
20260507024002 25 359 9.7 29.0 0.00 0.00 0.00 43 1009.9
20260507023458 25 69 4.8 27.4 0.00 0.00 0.00 43 1009.7
20260507022955 25 17 9.7 27.4 0.00 0.00 0.00 43 1009.7
20260507022453 25 76 8.0 25.7 0.00 0.00 0.00 43 1009.6
20260507021948 25 26 11.3 35.4 0.00 0.00 0.00 42 1009.7
20260507021443 25 27 22.5 22.5 0.00 0.00 0.00 42 1009.8
20260507020941 25 48 14.5 29.0 0.00 0.00 0.00 42 1009.9
20260507020438 25 357 11.3 25.7 0.00 0.00 0.00 42 1009.8
20260507015935 25 0 17.7 27.4 0.00 0.00 0.00 42 1009.8
20260507015433 25 23 9.7 24.1 0.00 0.00 0.00 41 1009.6
20260507014930 25 330 9.7 32.2 0.00 0.00 0.00 41 1009.7
20260507014427 25 3 14.5 29.0 0.00 0.00 0.00 41 1009.6
20260507013923 25 35 12.9 25.7 0.00 0.00 0.00 41 1009.7
20260507013420 25 7 20.9 25.7 0.00 0.00 0.00 41 1009.5
20260507012917 25 21 16.1 22.5 0.00 0.00 0.00 40 1009.6
20260507012414 25 8 17.7 29.0 0.00 0.00 0.00 41 1009.5
20260507011910 26 27 16.1 25.7 0.00 0.00 0.00 40 1009.3
20260507011407 26 47 11.3 27.4 0.00 0.00 0.00 40 1009.4
20260507010907 26 32 11.3 29.0 0.00 0.00 0.00 39 1009.5
20260507010403 26 15 8.0 25.7 0.00 0.00 0.00 39 1009.6
20260507005900 26 36 6.4 24.1 0.00 0.00 0.00 39 1009.6
20260507005357 26 13 8.0 25.7 0.00 0.00 0.00 39 1009.3
20260507004854 26 30 24.1 24.1 0.00 0.00 0.00 38 1009.3
20260507004351 26 344 6.4 29.0 0.00 0.00 0.00 38 1009.2
20260507003850 26 13 14.5 32.2 0.00 0.00 0.00 38 1009.0
20260507003343 26 25 20.9 27.4 0.00 0.00 0.00 38 1009.2
20260507002839 26 13 8.0 20.9 0.00 0.00 0.00 38 1009.0
20260507002335 26 0 8.0 29.0 0.00 0.00 0.00 38 1009.3
20260507001832 27 22 8.0 17.7 0.00 0.00 0.00 37 1009.2
20260507001329 27 30 6.4 16.1 0.00 0.00 0.00 37 1009.2
20260507000825 27 7 22.5 22.5 0.00 0.00 0.00 37 1009.3
20260507000321 27 28 17.7 22.5 0.00 0.00 0.00 36 1009.1
20260506235818 27 24 3.2 22.5 0.00 0.00 0.00 36 1009.3
20260506235314 27 25 14.5 27.4 0.00 0.00 0.00 36 1009.2
20260506234811 27 6 16.1 20.9 0.00 0.00 0.00 36 1009.4
20260506234308 27 29 11.3 27.4 0.00 0.00 0.00 36 1009.0
20260506233806 27 3 20.9 25.7 0.00 0.00 0.00 35 1009.0
20260506233301 27 11 8.0 19.3 0.00 0.00 0.00 36 1009.3
20260506232759 28 22 25.7 30.6 0.00 0.00 0.00 36 1009.3
20260506232254 28 107 4.8 25.7 0.00 0.00 0.00 36 1009.2
20260506231751 28 50 11.3 19.3 0.00 0.00 0.00 35 1009.1
20260506231249 28 22 8.0 20.9 0.00 0.00 0.00 35 1009.2
20260506230746 28 34 17.7 17.7 0.00 0.00 0.00 35 1009.3
20260506230243 28 8 16.1 19.3 0.00 0.00 0.00 35 1009.3
20260506225739 28 52 6.4 20.9 0.00 0.00 0.00 35 1009.3
20260506225236 28 8 8.0 24.1 0.00 0.00 0.00 34 1009.2
20260506224732 28 22 6.4 20.9 0.00 0.00 0.00 34 1009.1
20260506224230 28 20 11.3 20.9 0.00 0.00 0.00 33 1009.3
20260506223726 28 24 16.1 20.9 0.00 0.00 0.00 33 1009.3
20260506223222 28 9 16.1 16.1 0.00 0.00 0.00 33 1009.5
20260506222719 28 11 6.4 24.1 0.00 0.00 0.00 33 1009.7
20260506222214 28 13 11.3 14.5 0.00 0.00 0.00 33 1009.4
20260506221713 28 315 4.8 17.7 0.00 0.00 0.00 33 1009.3
20260506221211 28 8 16.1 25.7 0.00 0.00 0.00 32 1009.4
20260506220707 28 1 19.3 24.1 0.00 0.00 0.00 32 1009.7
20260506220202 28 353 9.7 22.5 0.00 0.00 0.00 32 1009.4
20260506215659 28 326 8.0 24.1 0.00 0.00 0.00 32 1009.6
20260506215154 28 14 8.0 14.5 0.00 0.00 0.00 33 1009.6
20260506214651 29 1 12.9 33.8 0.00 0.00 0.00 32 1009.4
20260506214149 29 307 9.7 17.7 0.00 0.00 0.00 32 1009.5
20260506213647 29 332 8.0 16.1 0.00 0.00 0.00 32 1009.3
20260506213144 29 351 6.4 22.5 0.00 0.00 0.00 32 1009.4
20260506212641 29 55 17.7 25.7 0.00 0.00 0.00 32 1009.5
20260506212136 29 356 11.3 16.1 0.00 0.00 0.00 32 1009.4
20260506211632 29 13 24.1 24.1 0.00 0.00 0.00 32 1009.5
20260506211129 29 340 16.1 27.4 0.00 0.00 0.00 32 1009.4
20260506210626 29 6 12.9 27.4 0.00 0.00 0.00 31 1009.6
20260506210122 29 349 14.5 27.4 0.00 0.00 0.00 31 1009.7
20260506205619 29 352 8.0 22.5 0.00 0.00 0.00 31 1009.5
20260506205114 29 34 22.5 27.4 0.00 0.00 0.00 31 1009.7
20260506204612 29 343 14.5 33.8 0.00 0.00 0.00 31 1009.7
20260506204109 29 327 27.4 30.6 0.00 0.00 0.00 30 1009.4
20260506203608 30 22 8.0 25.7 0.00 0.00 0.00 29 1009.6
20260506203103 30 324 9.7 35.4 0.00 0.00 0.00 29 1009.8
20260506202601 30 19 14.5 24.1 0.00 0.00 0.00 29 1009.8
20260506202057 30 356 17.7 22.5 0.00 0.00 0.00 28 1009.8
20260506201555 30 4 12.9 30.6 0.00 0.00 0.00 28 1010.0
20260506201051 30 335 14.5 25.7 0.00 0.00 0.00 28 1009.9
20260506200548 30 8 11.3 24.1 0.00 0.00 0.00 27 1009.5
20260506200045 30 24 12.9 24.1 0.00 0.00 0.00 27 1009.9
20260506195541 30 348 9.7 27.4 0.00 0.00 0.00 27 1009.8
20260506195038 30 344 14.5 25.7 0.00 0.00 0.00 27 1009.9
20260506194535 30 39 20.9 37.0 0.00 0.00 0.00 26 1010.2
20260506194032 30 357 11.3 29.0 0.00 0.00 0.00 27 1010.0
20260506193529 30 6 22.5 29.0 0.00 0.00 0.00 27 1010.2
20260506193026 30 359 17.7 24.1 0.00 0.00 0.00 27 1010.1
20260506192523 31 323 9.7 27.4 0.00 0.00 0.00 26 1010.2
20260506192018 31 12 14.5 24.1 0.00 0.00 0.00 26 1009.9
20260506191516 31 358 11.3 24.1 0.00 0.00 0.00 25 1010.0
20260506191012 31 23 20.9 27.4 0.00 0.00 0.00 25 1010.0
20260506190509 31 353 19.3 25.7 0.00 0.00 0.00 25 1010.3
20260506190006 31 14 14.5 27.4 0.00 0.00 0.00 25 1010.1
20260506185503 31 7 16.1 27.4 0.00 0.00 0.00 25 1009.9
20260506185000 31 0 16.1 29.0 0.00 0.00 0.00 26 1009.8
20260506184457 31 13 22.5 27.4 0.00 0.00 0.00 25 1009.9
20260506183954 31 359 20.9 25.7 0.00 0.00 0.00 25 1010.0
20260506183449 31 327 14.5 30.6 0.00 0.00 0.00 25 1009.7
20260506182947 31 351 11.3 33.8 0.00 0.00 0.00 25 1009.6
20260506182444 31 352 12.9 25.7 0.00 0.00 0.00 25 1009.8
20260506181941 31 50 12.9 27.4 0.00 0.00 0.00 24 1009.7
20260506181439 32 359 14.5 20.9 0.00 0.00 0.00 24 1009.6
20260506180936 32 12 16.1 22.5 0.00 0.00 0.00 23 1009.6
20260506180432 32 3 11.3 17.7 0.00 0.00 0.00 24 1009.6
20260506175929 32 16 17.7 20.9 0.00 0.00 0.00 24 1009.5
20260506175426 32 0 6.4 20.9 0.00 0.00 0.00 24 1009.6
20260506174922 32 354 14.5 24.1 0.00 0.00 0.00 24 1009.7
20260506174420 32 352 14.5 17.7 0.00 0.00 0.00 23 1009.5
20260506173917 32 57 20.9 24.1 0.00 0.00 0.00 23 1009.6
20260506173414 32 352 8.0 20.9 0.00 0.00 0.00 23 1009.7
20260506172911 32 4 9.7 19.3 0.00 0.00 0.00 23 1009.8
20260506172408 32 327 11.3 17.7 0.00 0.00 0.00 23 1009.6
20260506171905 32 336 11.3 25.7 0.00 0.00 0.00 23 1009.4
20260506171402 32 7 19.3 25.7 0.00 0.00 0.00 23 1009.4
20260506170900 32 4 12.9 16.1 0.00 0.00 0.00 24 1009.4
20260506170355 32 7 4.8 16.1 0.00 0.00 0.00 24 1009.3
20260506165855 32 341 6.4 14.5 0.00 0.00 0.00 25 1009.0
20260506165353 32 6 4.8 19.3 0.00 0.00 0.00 25 1009.1
20260506164849 32 1 8.0 19.3 0.00 0.00 0.00 24 1009.1
20260506164345 32 352 4.8 20.9 0.00 0.00 0.00 24 1009.0
20260506163843 32 9 8.0 12.9 0.00 0.00 0.00 24 1009.1
20260506163337 32 343 4.8 17.7 0.00 0.00 0.00 24 1008.8
20260506162833 32 52 6.4 14.5 0.00 0.00 0.00 25 1008.9
20260506162331 32 34 9.7 12.9 0.00 0.00 0.00 25 1008.9
20260506161829 32 4 6.4 12.9 0.00 0.00 0.00 26 1008.7
20260506161326 32 0 8.0 17.7 0.00 0.00 0.00 26 1008.7
20260506160824 32 12 6.4 11.3 0.00 0.00 0.00 27 1008.7
20260506160320 32 344 4.8 14.5 0.00 0.00 0.00 27 1008.8
20260506155819 32 2 4.8 12.9 0.00 0.00 0.00 27 1008.7
20260506155315 32 11 4.8 12.9 0.00 0.00 0.00 27 1008.8
20260506153427 32 355 8.0 12.9 0.00 0.00 0.00 27 1008.5
20260506152925 32 14 16.1 20.9 0.00 0.00 0.00 27 1008.3
20260506152421 32 42 8.0 12.9 0.00 0.00 0.00 27 1008.6
20260506151920 32 344 3.2 17.7 0.00 0.00 0.00 28 1008.5
20260506151416 32 359 14.5 17.7 0.00 0.00 0.00 27 1008.6
20260506150914 33 5 4.8 19.3 0.00 0.00 0.00 28 1008.5
20260506150410 33 30 6.4 24.1 0.00 0.00 0.00 26 1008.2
20260506145907 33 17 17.7 19.3 0.00 0.00 0.00 26 1008.3
20260506145403 33 7 9.7 20.9 0.00 0.00 0.00 26 1008.1
20260506144901 33 19 8.0 20.9 0.00 0.00 0.00 26 1008.0
20260506144357 33 43 9.7 19.3 0.00 0.00 0.00 26 1007.9
20260506143856 33 26 17.7 24.1 0.00 0.00 0.00 26 1007.9
20260506143352 33 6 9.7 20.9 0.00 0.00 0.00 27 1007.7
20260506142851 33 66 11.3 20.9 0.00 0.00 0.00 26 1007.9
20260506142348 33 24 11.3 25.7 0.00 0.00 0.00 26 1008.1
20260506141846 33 34 4.8 25.7 0.00 0.00 0.00 26 1007.7
20260506141344 33 65 6.4 20.9 0.00 0.00 0.00 26 1007.7
20260506140842 33 16 22.5 24.1 0.00 0.00 0.00 25 1007.8
20260506140339 33 14 1.6 22.5 0.00 0.00 0.00 26 1007.8
20260506135836 33 43 9.7 20.9 0.00 0.00 0.00 27 1008.0
20260506135332 33 12 6.4 24.1 0.00 0.00 0.00 28 1007.9
20260506134828 33 30 16.1 25.7 0.00 0.00 0.00 27 1007.7
20260506134325 33 71 9.7 22.5 0.00 0.00 0.00 27 1007.8
20260506133822 33 25 9.7 24.1 0.00 0.00 0.00 27 1007.9
20260506133319 33 82 6.4 19.3 0.00 0.00 0.00 27 1007.8
20260506132815 33 346 11.3 25.7 0.00 0.00 0.00 26 1008.0